EHI
0 0 0 0 0 0 0 0 0 0 1 1 1 3 5 6 7 10 13 17 17 13 10 11 15 20 21 19 19 22 21 19 18 16 12 10 9 8 7 7 8 9 10 10
0 0 0 0 0 0 0 0 0 0 1 1 2 3 5 6 8 11 14 16 16 13 11 12 15 18 19 16 17 21 21 20 19 16 13 13 13 11 9 10 10 11 12 11
0 0 0 0 0 0 0 0 0 1 2 3 5 5 5 6 10 13 15 15 14 11 11 12 13 14 15 15 16 19 21 21 19 16 15 16 16 14 12 12 13 13 13 12
0 0 0 0 0 0 0 0 0 2 4 8 11 11 8 8 12 15 15 14 12 10 10 9 9 11 12 13 16 18 20 19 18 16 17 18 17 15 13 13 14 14 14 14
0 0 0 0 0 1 1 1 1 5 10 14 17 16 12 10 13 15 15 14 12 11 9 7 7 8 11 13 14 14 15 15 15 16 17 18 16 13 12 13 14 15 15 16
0 0 0 0 0 1 1 1 3 9 14 18 20 17 13 12 14 14 13 12 11 10 9 7 6 8 11 13 11 8 7 9 11 13 15 15 14 12 11 13 14 16 17 17
0 0 0 0 0 0 0 1 6 11 14 17 18 14 12 12 12 12 10 9 9 10 10 8 7 9 10 9 6 4 3 4 6 9 11 13 14 13 13 12 13 14 16 18
0 0 0 0 0 0 1 3 8 12 14 16 15 12 11 12 11 10 8 7 7 9 9 8 8 8 7 5 4 3 3 3 4 6 8 10 14 15 14 13 12 12 13 15
0 0 0 0 0 1 3 7 11 13 15 15 13 10 9 10 10 9 8 7 7 8 8 8 8 8 7 6 4 3 3 3 4 5 6 9 12 14 15 14 13 12 12 12
1 2 2 2 3 5 8 12 13 14 15 14 11 9 8 7 7 8 9 8 8 8 9 9 8 9 8 7 5 3 1 1 3 5 7 8 11 13 14 16 16 15 13 12
2 3 4 5 6 8 11 13 15 15 13 11 10 9 7 6 5 7 9 9 9 9 10 9 8 8 6 4 3 2 1 1 3 5 6 8 9 10 11 13 14 13 11 10
4 5 6 7 7 7 8 10 13 13 12 9 9 9 9 7 6 7 8 9 9 9 9 8 6 5 3 2 2 2 2 2 3 4 5 5 7 7 7 7 6 6 6 5
7 6 6 6 5 4 4 5 8 11 11 9 9 10 11 10 8 7 8 9 8 8 7 5 4 3 3 2 2 3 3 3 3 4 4 5 5 5 4 3 2 1 1 1
7 6 4 4 4 4 4 4 6 9 11 12 13 14 15 14 12 10 8 8 7 7 6 4 2 3 3 3 3 3 3 3 3 4 4 5 4 4 5 5 3 2 0 0
3 3 2 3 3 4 4 4 6 9 13 15 17 18 18 18 15 12 9 7 6 7 6 4 3 3 3 3 3 3 3 3 3 3 4 4 4 4 6 6 5 4 1 0
1 1 2 3 4 4 4 5 7 10 14 18 19 19 19 19 16 12 9 7 6 6 5 4 3 3 3 3 3 3 3 3 3 3 3 3 3 4 5 5 5 4 2 1
1 2 3 4 4 3 4 5 8 11 15 18 19 19 19 18 15 11 8 7 6 4 3 3 3 3 3 3 3 3 3 3 3 3 3 3 3 4 4 4 4 3 3 3
1 2 4 4 4 4 5 5 8 12 16 19 19 19 17 15 12 10 8 8 7 5 4 3 3 3 3 2 3 3 3 3 3 3 3 3 3 3 4 3 3 3 3 2
3 4 6 6 5 6 6 6 8 11 15 17 17 16 14 12 10 9 8 8 8 6 4 3 3 2 1 1 1 2 3 4 4 3 3 3 3 3 2 2 2 2 1 1
6 6 7 7 8 8 8 7 7 9 12 14 14 13 11 10 9 8 7 7 7 6 4 3 2 1 0 0 0 2 3 4 4 3 2 2 2 1 1 1 1 1 0 0
6 6 6 8 9 9 8 7 6 7 9 11 11 10 10 9 8 7 7 6 7 7 5 2 1 0 0 0 0 1 2 3 3 1 1 1 1 0 0 0 0 0 0 0
6 6 6 6 7 7 6 6 5 5 7 8 8 8 8 8 7 7 6 6 6 6 5 2 0 0 0 0 0 1 1 1 1 0 0 0 0 0 0 0 0 0 0 0
6 5 4 4 4 4 4 4 4 5 7 7 6 6 6 7 6 6 6 6 5 5 4 2 0 0 0 0 0 0 0 0 0 0 0 0 0 0 0 0 0 0 0 0
4 4 3 3 3 3 3 3 4 5 6 6 5 5 5 6 6 6 5 4 4 4 3 1 0 0 0 0 0 0 0 0 0 0 0 0 0 0 0 0 0 0 0 0
3 3 3 3 3 3 3 3 3 4 5 5 5 5 5 5 5 4 4 3 3 2 1 0 0 0 0 0 0 0 0 0 0 0 0 0 0 0 0 0 0 0 0 0
1 2 3 3 3 3 3 3 3 3 4 4 4 5 5 5 4 4 3 3 2 1 0 0 0 0 0 0 0 0 0 0 0 0 0 0 0 0 0 0 0 0 0 0
0 1 3 3 3 3 3 3 3 3 3 3 4 4 4 4 4 4 3 3 1 0 0 0 0 0 0 0 0 0 0 0 0 0 0 0 0 0 0 0 0 0 0 0
Wind_Speed
3 3 1 1 1 1 1 5 6 6 6 7 8 8 8 7 6 7 6 5 5 4 4 3 3 4 4 4 4 4 4 3 3 3 2 2 2 2 2 1 1 1 1 2
3 2 1 2 2 1 1 1 4 4 4 5 4 5 5 6 7 7 7 6 4 4 4 3 4 4 3 3 3 3 3 3 2 2 2 2 2 2 1 2 2 2 2 2
2 4 4 3 4 2 1 1 5 5 5 4 5 6 6 7 7 7 7 6 4 3 3 2 2 3 4 4 3 3 3 2 2 2 2 3 2 2 2 3 2 3 3 3
1 2 2 7 4 3 4 2 1 3 3 6 7 6 4 5 7 7 6 6 4 3 3 2 2 3 3 3 3 3 3 2 2 2 3 3 2 2 3 3 3 3 3 3
3 2 3 5 4 2 5 2 2 4 4 5 6 7 4 1 5 7 7 6 5 5 5 4 3 3 3 3 2 2 1 2 2 3 3 2 3 3 3 2 3 3 3 3
4 3 4 6 6 2 8 1 2 4 6 6 7 4 3 2 5 6 6 6 6 6 6 4 3 3 4 3 2 0 1 2 2 2 2 3 4 3 3 2 3 2 2 3
3 3 5 5 4 3 4 6 3 3 5 5 4 5 5 5 5 6 6 6 6 6 4 3 2 4 3 2 0 2 1 1 2 2 3 3 2 2 2 2 2 2 2 2
3 2 6 5 3 3 5 4 4 4 4 5 5 5 5 5 6 6 6 5 5 5 3 2 3 4 3 1 2 1 1 1 2 2 2 1 1 2 1 1 2 3 2 3
5 6 5 2 2 3 5 5 4 4 6 7 7 5 5 5 4 4 4 4 4 4 3 2 2 4 3 1 1 1 1 2 2 2 2 1 1 2 1 1 2 3 2 3
2 2 2 2 3 4 3 4 5 6 7 7 7 5 5 5 4 4 3 3 3 4 3 2 1 2 2 1 0 1 1 2 2 2 2 2 1 1 1 2 2 2 3 3
1 2 3 4 3 3 4 4 6 6 5 6 7 6 5 5 4 3 3 2 3 3 3 2 2 1 1 0 0 0 1 2 2 1 1 2 2 2 2 3 3 3 3 2
5 5 3 3 2 2 3 2 4 6 5 4 6 6 5 5 4 3 3 2 2 2 2 2 1 0 1 1 0 0 1 2 2 2 2 2 2 3 4 2 3 3 3 3
5 4 3 2 1 1 2 2 3 6 6 5 3 5 6 4 3 3 3 3 3 3 2 2 1 0 1 1 0 1 1 2 2 2 2 2 2 2 2 4 4 4 3 3
3 4 2 0 1 0 2 3 3 4 4 5 5 5 5 4 3 3 3 3 3 3 2 2 1 1 2 2 1 1 2 3 2 2 2 2 2 2 2 1 2 3 4 4
1 3 3 2 1 2 2 4 4 3 3 3 4 5 5 5 4 3 3 3 3 3 2 1 1 2 2 1 1 2 2 2 2 2 2 2 2 2 1 2 2 2 2 3
1 2 2 1 2 2 3 4 4 3 3 3 4 4 4 4 3 3 2 3 4 3 2 2 2 3 2 1 1 1 2 3 2 1 1 1 1 1 1 1 2 2 2 3
3 1 1 1 2 2 3 3 4 3 3 4 4 4 4 4 2 1 1 1 2 2 2 2 3 3 2 1 1 1 2 2 2 1 1 1 1 1 1 1 2 2 3 3
2 3 3 4 3 3 3 3 3 4 4 4 4 4 4 4 3 1 1 0 1 1 1 2 2 2 2 1 1 1 1 1 1 1 1 1 2 1 1 1 2 3 3 3
2 2 1 2 2 3 3 3 3 3 3 4 5 4 4 3 3 2 2 2 1 0 2 3 2 1 2 2 2 1 1 1 1 1 1 1 1 1 1 1 2 2 2 2
2 3 3 3 3 3 3 2 3 3 3 4 4 4 3 2 2 2 2 1 2 3 2 1 1 2 2 3 2 1 1 1 1 1 1 1 1 2 1 1 1 1 1 1
2 3 4 3 3 2 2 2 2 2 2 4 4 4 4 3 2 2 2 1 2 1 1 1 1 2 2 2 2 1 1 1 1 1 1 1 1 1 1 1 1 1 1 1
2 3 3 2 3 2 1 1 1 2 2 2 3 3 3 2 2 1 1 2 2 2 1 0 1 2 2 2 1 1 1 1 1 1 1 1 1 1 1 0 0 1 1 1
1 1 2 1 2 1 1 1 1 2 2 2 3 3 3 2 2 2 1 2 1 1 1 1 1 2 2 1 1 1 1 1 0 0 1 1 1 1 0 0 0 1 1 1
1 1 1 1 2 2 1 1 1 1 1 1 2 2 2 1 0 1 2 1 1 1 0 1 1 2 1 1 1 1 1 1 1 0 0 0 0 0 0 0 0 0 1 1
1 1 1 1 1 1 1 1 2 1 1 1 0 0 1 2 2 1 1 1 1 1 0 1 1 1 1 1 1 1 1 1 0 0 1 0 1 0 0 0 0 0 0 0
1 1 1 1 2 1 1 1 1 0 0 1 1 1 0 1 1 1 1 0 1 1 1 1 1 1 1 1 1 1 1 1 1 1 1 0 0 0 0 0 1 0 0 0
1 1 1 0 0 1 1 1 1 1 1 1 0 0 0 0 1 1 1 1 1 1 1 1 1 1 1 1 1 1 1 1 1 1 0 0 0 0 0 0 0 0 0 1
Wind_Direction
217 232 210 190 242 346 161 187 179 208 194 209 200 177 166 153 144 131 130 133 141 146 153 156 159 171 174 172 170 163 159 168 193 204 209 216 232 250 257 254 258 251 271 274
335 321 17 357 301 246 232 189 162 163 222 225 175 142 138 147 145 142 141 143 145 143 144 152 160 166 161 160 160 151 158 182 188 188 198 221 234 241 255 263 269 262 261 260
283 305 18 318 265 212 189 164 159 181 214 154 130 145 157 158 149 148 148 144 145 149 151 149 144 148 147 150 149 146 160 183 186 190 202 221 232 237 245 252 262 265 263 258
146 41 232 251 256 156 119 75 104 133 144 146 152 149 133 136 140 144 141 139 140 134 116 106 108 110 132 131 136 151 172 191 197 197 215 228 231 241 248 249 254 256 259 255
126 166 258 292 289 167 126 54 48 119 125 123 108 80 45 92 134 142 140 137 135 125 116 102 101 117 116 114 117 126 182 219 223 210 214 225 235 244 244 248 259 259 258 251
131 153 219 248 277 180 104 61 310 110 128 137 115 112 228 182 126 125 122 122 123 118 115 117 129 121 105 100 92 124 250 252 249 229 219 228 238 246 250 249 255 264 271 257
153 188 248 265 292 74 122 215 225 135 145 142 151 179 176 144 128 129 127 124 123 120 118 129 129 114 107 98 164 250 271 302 296 274 251 239 244 256 267 267 281 277 273 274
142 166 249 296 51 124 195 190 140 124 125 120 118 115 117 120 125 129 128 125 123 121 121 123 121 118 116 163 259 288 349 347 317 299 285 290 255 263 276 281 288 285 280 285
171 200 236 290 141 176 140 122 123 130 134 125 119 126 126 120 119 123 129 132 131 132 131 130 135 129 133 236 320 26 13 332 314 313 302 296 266 264 277 279 276 281 277 278
77 290 302 19 48 36 73 125 128 132 135 130 128 136 137 132 127 123 133 138 136 134 142 163 164 137 161 197 75 43 356 325 327 329 320 320 294 248 233 239 251 273 276 276
104 294 358 5 37 55 49 79 107 118 126 137 137 144 144 140 143 144 140 137 134 142 159 186 182 184 216 254 98 69 331 308 303 302 299 304 295 262 243 234 220 221 245 252
212 219 181 263 282 95 88 104 127 121 113 129 141 149 141 144 153 148 143 135 132 137 148 178 180 200 257 240 157 139 315 311 307 303 299 298 301 312 322 309 296 261 246 246
195 196 172 218 293 85 115 143 138 139 142 141 144 146 142 146 153 145 142 145 151 160 173 180 171 260 287 272 180 197 243 263 272 274 275 280 282 272 300 327 331 321 302 285
152 115 88 133 201 182 135 137 126 127 139 148 152 145 139 136 139 150 168 177 166 152 155 168 175 255 269 250 228 261 264 261 254 247 250 260 268 265 246 255 301 308 303 297
180 141 163 188 178 125 126 118 105 109 115 127 143 143 145 148 159 178 181 162 145 139 157 172 207 264 272 260 260 273 275 271 264 252 249 259 273 274 263 260 269 284 307 313
125 83 80 117 134 128 122 124 123 137 141 134 136 147 152 150 159 166 160 152 149 171 201 205 235 254 256 261 290 284 279 283 282 270 279 286 293 278 266 266 270 277 281 282
123 164 240 202 165 152 152 151 153 162 150 139 145 143 132 118 104 110 137 163 164 190 204 210 243 264 267 249 254 268 279 290 299 316 283 266 262 253 251 261 269 271 271 270
171 185 188 180 163 150 136 136 148 145 146 147 136 129 130 134 141 162 188 133 70 37 312 273 266 281 283 277 265 269 274 270 264 251 257 262 264 258 259 268 273 278 289 299
82 87 84 108 129 130 130 140 144 143 145 138 131 141 150 158 164 173 167 128 128 233 281 283 282 280 284 289 293 273 285 289 281 269 261 287 306 301 289 285 293 296 301 314
72 76 83 72 74 104 118 127 130 134 146 143 136 134 137 163 166 151 133 151 210 219 242 274 312 317 298 296 310 284 282 280 268 276 277 279 286 284 284 288 294 302 316 319
67 71 77 72 63 67 86 118 130 133 142 140 145 156 166 178 176 153 139 199 267 251 236 278 313 305 301 307 323 323 300 276 269 269 274 276 284 285 284 292 312 316 328 333
68 82 80 81 77 56 26 61 111 127 129 140 152 153 152 161 169 172 194 211 227 212 190 269 284 301 309 325 357 345 327 302 276 278 280 282 277 276 281 299 303 314 332 326
111 114 99 103 120 116 47 50 101 134 151 161 164 166 173 184 175 164 235 258 214 199 186 255 289 319 334 20 25 1 348 345 336 320 305 308 283 239 234 224 344 351 353 351
114 110 119 103 95 91 76 342 60 108 140 166 183 180 164 146 179 232 202 206 216 230 258 299 343 353 4 18 17 6 348 333 329 5 8 332 330 340 67 91 42 22 21 15
131 140 133 109 105 143 182 103 77 70 68 67 50 98 130 149 166 201 171 188 211 209 311 318 334 351 1 338 338 336 330 329 342 33 16 352 339 2 36 77 80 69 60 28
177 187 179 177 185 185 166 137 127 120 72 54 351 345 21 91 130 132 109 75 55 63 34 336 331 9 17 344 333 341 350 355 8 2 344 7 31 55 43 42 60 70 24 10
145 129 110 34 219 166 152 143 144 160 153 141 144 335 43 111 113 105 98 74 60 46 30 9 0 26 36 37 36 27 10 4 19 11 0 43 60 62 46 75 93 89 52 25